User: anonymous   Login
Location: Hylvaty SDH
(49.9612°N, 16.4057°E)
Time: 02:19:52
(UTC+02:00)
Language:

Explorer 7 - Orbit

View from above orbital plane
View from above orbital plane
View from above satellite
View from above satellite

Ground track
Ground track

The orbit data is extracted from the following two-line orbital elements,

1    22U 59009A   20226.71238554 -.00000056  00000-0  19304-4 0  9997
2    22  50.2826 193.3941 0139344 117.5170 244.0018 14.95173586233898
Epoch (UTC): 13 August 2020 17:05:50
Eccentricity: 0.0139344
inclination: 50.2826°
perigee height: 485 km
apogee height: 679 km
right ascension of ascending node: 193.3941°
argument of perigee: 117.5170°
revolutions per day: 14.95173586
mean anomaly at epoch: 244.0018°
orbit number at epoch: 23389

The dashed part of the orbit path shows where the satellite is in the earth's shadow,  

DLR